Starlink 35732

operational
NORAD ID: 67037 Int'l Des: 2025-294 Owner: SPXS Country: US Constellation: starlink
NOTLE

About Starlink 35732

Description loading...

Live Position

Loading 3D Globe...

Upcoming Passes

Altitude History

Altitude vs Time

uPlot chart will show altitude changes over time

Two-Line Element Set

1 67037C 25294H 25346.87548611 .01006000 00000+0 14587-2 0 3464
2 67037 43.0026 182.5103 0009170 283.7146 326.2079 16.03190915 13
Epoch: Dec 12, 2025 • Age: 50 hours

Current Status

Altitude 260.7 km
Velocity 7.75 km/s
Sub-Earth Point -25.85°S, 35.48°E
Launch Date Dec 11, 2025
Age 2 days
Type internet

Technical Details

Classification Payload
Mass 575.00 kg
Dry Mass 530.00 kg
Total Mass 575.00 kg
Length 0.30 m
Diameter 4.10 m
Span 29.00 m
Shape Box + pan
Manufacturer SPXS
Bus Type Starlink V2MO
Phase Status In Orbit
Owner/State SPXS/US

Large Constellations

Loading constellations...